Flamingo Airport


Codes: MRFL/FMG
Name: Flamingo Airport
City: Brasilito
Country: Costa Rica
Elevation: 270 ft.

Photos at Flamingo Airport


   Photos courtesy of SpottingLog. You can add your own sightings and photos by signing up for a free trial today.



No photos found.

Weather at Flamingo Airport


Time (UTC)DescriptionTempratureWindCloud coverageVisibilityPressureHumidity
16-Jun-2024 09:00Light Rain25°C4 mph, SE100%10000m1010hPa91%
16-Jun-2024 12:00Light Rain25°C4 mph, SE100%10000m1010hPa90%
16-Jun-2024 15:00Light Rain26°C4 mph, SE100%10000m1011hPa85%
16-Jun-2024 18:00Light Rain28°C11 mph, SW100%10000m1011hPa80%
16-Jun-2024 21:00Light Rain27°C11 mph, SW99%10000m1009hPa83%
17-Jun-2024 00:00Light Rain26°C7 mph, SW100%10000m1010hPa85%
17-Jun-2024 03:00Light Rain26°C4 mph, SW100%10000m1011hPa86%
17-Jun-2024 06:00Light Rain25°C4 mph, SE100%10000m1011hPa89%
17-Jun-2024 09:00Light Rain25°C4 mph, SE100%10000m1009hPa88%
17-Jun-2024 12:00Light Rain25°C4 mph, SE100%10000m1010hPa89%
17-Jun-2024 15:00Light Rain27°C4 mph, S100%10000m1011hPa82%
17-Jun-2024 18:00Light Rain27°C4 mph, SW100%10000m1010hPa82%
17-Jun-2024 21:00Light Rain27°C7 mph, W100%10000m1009hPa82%
18-Jun-2024 00:00Light Rain27°C4 mph, W100%10000m1010hPa83%
18-Jun-2024 03:00Light Rain27°C2 mph, W100%10000m1011hPa84%
18-Jun-2024 06:00Light Rain26°C0 mph, W100%10000m1010hPa86%
18-Jun-2024 09:00Light Rain26°C4 mph, W100%10000m1009hPa86%
18-Jun-2024 12:00Light Rain26°C2 mph, SW100%10000m1010hPa86%
18-Jun-2024 15:00Light Rain28°C7 mph, W100%10000m1011hPa79%
18-Jun-2024 18:00Light Rain27°C9 mph, W100%10000m1010hPa83%
18-Jun-2024 21:00Light Rain27°C7 mph, W97%10000m1008hPa81%
19-Jun-2024 00:00Light Rain26°C2 mph, W99%10000m1008hPa86%
19-Jun-2024 03:00Light Rain26°C2 mph, SW100%10000m1010hPa84%
19-Jun-2024 06:00Light Rain25°C2 mph, SW100%10000m1010hPa87%
19-Jun-2024 09:00Light Rain26°C4 mph, W100%10000m1009hPa86%
19-Jun-2024 12:00Moderate Rain25°C2 mph, NW100%7632m1009hPa91%
19-Jun-2024 15:00Light Rain26°C2 mph, NW100%10000m1011hPa85%
19-Jun-2024 18:00Light Rain26°C2 mph, W100%10000m1009hPa86%
19-Jun-2024 21:00Light Rain26°C2 mph, SE100%10000m1007hPa86%
20-Jun-2024 00:00Light Rain25°C2 mph, SE100%10000m1008hPa91%
20-Jun-2024 03:00Light Rain24°C4 mph, SE100%10000m1010hPa92%
20-Jun-2024 06:00Light Rain24°C7 mph, S100%10000m1009hPa93%
20-Jun-2024 09:00Light Rain24°C4 mph, SE100%10000m1007hPa92%
20-Jun-2024 12:00Moderate Rain23°C4 mph, E100%6639m1008hPa95%
20-Jun-2024 15:00Moderate Rain24°C7 mph, SE100%9101m1010hPa95%
20-Jun-2024 18:00Moderate Rain24°C11 mph, S100%10000m1010hPa93%
20-Jun-2024 21:00Moderate Rain24°C7 mph, S100%10000m1008hPa92%
21-Jun-2024 00:00Light Rain24°C4 mph, S100%10000m1009hPa91%
21-Jun-2024 03:00Light Rain23°C4 mph, SE100%10000m1010hPa92%
21-Jun-2024 06:00Light Rain23°C4 mph, SE100%10000m1010hPa94%